Time,TemperatureF,DewpointF,PressureIn,WindDirection,WindDirectionDegrees,WindSpeedMPH,WindSpeedGustMPH,Humidity,HourlyPrecipIn,Conditions,Clouds,dailyrainin,SoftwareType,DateUTC
2013-03-21 00:00:00,34.9,22.4,29.61,NNW,348,0.0,9.0,60,0.00,,,0.00,Wunderground v.1.15,2013-03-21 06:00:00,
2013-03-21 00:10:00,34.5,22.0,29.60,NNW,342,0.0,9.0,60,0.00,,,0.00,Wunderground v.1.15,2013-03-21 06:10:00,
2013-03-21 00:15:00,34.3,22.2,29.60,NNW,331,0.0,9.0,61,0.00,,,0.00,Wunderground v.1.15,2013-03-21 06:15:00,
2013-03-21 00:20:00,34.2,22.1,29.60,NNW,331,0.0,9.0,61,0.00,,,0.00,Wunderground v.1.15,2013-03-21 06:20:00,
2013-03-21 00:25:00,34.3,22.2,29.60,North,5,0.0,9.0,61,0.00,,,0.00,Wunderground v.1.15,2013-03-21 06:25:00,
2013-03-21 00:30:00,34.5,22.0,29.60,West,279,0.0,9.0,60,0.00,,,0.00,Wunderground v.1.15,2013-03-21 06:30:00,
2013-03-21 00:35:00,34.4,21.9,29.59,WNW,300,0.0,9.0,60,0.00,,,0.00,Wunderground v.1.15,2013-03-21 06:35:00,
2013-03-21 00:40:00,34.3,21.8,29.58,NNW,344,0.0,9.0,60,0.00,,,0.00,Wunderground v.1.15,2013-03-21 06:40:00,
2013-03-21 00:45:00,34.4,21.9,29.58,NNW,338,0.0,9.0,60,0.00,,,0.00,Wunderground v.1.15,2013-03-21 06:45:00,
2013-03-21 00:50:00,34.5,22.0,29.58,NNW,331,0.0,9.0,60,0.00,,,0.00,Wunderground v.1.15,2013-03-21 06:50:00,
2013-03-21 00:55:00,34.6,22.1,29.58,NNW,327,0.0,9.0,60,0.00,,,0.00,Wunderground v.1.15,2013-03-21 06:55:00,
2013-03-21 01:00:00,34.8,21.9,29.58,NNW,331,0.0,9.0,59,0.00,,,0.00,Wunderground v.1.15,2013-03-21 07:00:00,
2013-03-21 01:05:00,35.1,21.8,29.58,NW,310,0.0,9.0,58,0.00,,,0.00,Wunderground v.1.15,2013-03-21 07:05:00,
2013-03-21 01:10:00,35.4,22.1,29.57,WNW,294,0.0,9.0,58,0.00,,,0.00,Wunderground v.1.15,2013-03-21 07:10:00,
2013-03-21 01:20:00,35.6,21.9,29.57,NNW,343,0.0,9.0,57,0.00,,,0.00,Wunderground v.1.15,2013-03-21 07:20:00,
2013-03-21 01:25:00,35.5,21.8,29.57,WNW,302,0.0,9.0,57,0.00,,,0.00,Wunderground v.1.15,2013-03-21 07:25:00,
2013-03-21 01:30:00,35.3,21.6,29.56,NW,304,0.0,9.0,57,0.00,,,0.00,Wunderground v.1.15,2013-03-21 07:30:00,
2013-03-21 01:35:00,35.1,21.4,29.56,NW,304,0.0,9.0,57,0.00,,,0.00,Wunderground v.1.15,2013-03-21 07:35:00,
2013-03-21 01:40:00,34.9,21.6,29.56,NW,311,0.0,9.0,58,0.00,,,0.00,Wunderground v.1.15,2013-03-21 07:40:00,
2013-03-21 01:45:00,34.9,21.6,29.56,NW,316,0.0,9.0,58,0.00,,,0.00,Wunderground v.1.15,2013-03-21 07:45:00,
2013-03-21 01:50:00,34.7,21.4,29.55,NW,313,0.0,9.0,58,0.00,,,0.00,Wunderground v.1.15,2013-03-21 07:50:00,
2013-03-21 01:55:00,34.6,21.3,29.55,NNW,343,0.0,9.0,58,0.00,,,0.00,Wunderground v.1.15,2013-03-21 07:55:00,
2013-03-21 02:00:00,34.5,21.6,29.55,NW,326,0.0,9.0,59,0.00,,,0.00,Wunderground v.1.15,2013-03-21 08:00:00,
2013-03-21 02:05:00,34.3,21.4,29.55,West,278,0.0,9.0,59,0.00,,,0.00,Wunderground v.1.15,2013-03-21 08:05:00,
2013-03-21 02:10:00,34.1,21.3,29.55,West,278,0.0,9.0,59,0.00,,,0.00,Wunderground v.1.15,2013-03-21 08:10:00,
2013-03-21 02:20:00,33.5,21.1,29.54,West,278,0.0,9.0,60,0.00,,,0.00,Wunderground v.1.15,2013-03-21 08:20:00,
2013-03-21 02:25:00,33.4,21.4,29.54,North,350,0.0,9.0,61,0.00,,,0.00,Wunderground v.1.15,2013-03-21 08:25:00,
2013-03-21 02:30:00,33.3,21.3,29.53,North,349,0.0,9.0,61,0.00,,,0.00,Wunderground v.1.15,2013-03-21 08:30:00,
2013-03-21 02:35:00,33.3,21.3,29.53,WNW,302,0.0,9.0,61,0.00,,,0.00,Wunderground v.1.15,2013-03-21 08:35:00,
2013-03-21 02:40:00,33.5,21.5,29.53,NW,319,0.0,9.0,61,0.00,,,0.00,Wunderground v.1.15,2013-03-21 08:40:00,
2013-03-21 02:45:00,33.5,21.5,29.52,North,355,0.0,9.0,61,0.00,,,0.00,Wunderground v.1.15,2013-03-21 08:45:00,
2013-03-21 02:55:00,33.6,21.6,29.51,NW,317,0.0,9.0,61,0.00,,,0.00,Wunderground v.1.15,2013-03-21 08:55:00,
2013-03-21 03:00:00,34.0,22.0,29.52,West,279,0.0,9.0,61,0.00,,,0.00,Wunderground v.1.15,2013-03-21 09:00:00,
2013-03-21 03:05:00,34.4,21.9,29.51,NNW,348,0.0,9.0,60,0.00,,,0.00,Wunderground v.1.15,2013-03-21 09:05:00,
2013-03-21 03:10:00,34.5,21.6,29.51,NNW,344,0.0,9.0,59,0.00,,,0.00,Wunderground v.1.15,2013-03-21 09:10:00,
2013-03-21 03:15:00,34.5,21.6,29.50,WNW,290,0.0,9.0,59,0.00,,,0.00,Wunderground v.1.15,2013-03-21 09:15:00,
2013-03-21 03:20:00,34.4,21.9,29.50,WNW,303,0.0,9.0,60,0.00,,,0.00,Wunderground v.1.15,2013-03-21 09:20:00,
2013-03-21 03:25:00,34.3,21.8,29.49,NNW,332,0.0,9.0,60,0.00,,,0.00,Wunderground v.1.15,2013-03-21 09:25:00,
2013-03-21 03:30:00,34.3,21.8,29.49,NNE,17,0.0,9.0,60,0.00,,,0.00,Wunderground v.1.15,2013-03-21 09:30:00,
2013-03-21 03:35:00,34.3,21.8,29.48,NW,307,0.0,9.0,60,0.00,,,0.00,Wunderground v.1.15,2013-03-21 09:35:00,
2013-03-21 03:40:00,34.1,21.3,29.48,NW,307,0.0,9.0,59,0.00,,,0.00,Wunderground v.1.15,2013-03-21 09:40:00,
2013-03-21 03:45:00,34.0,21.6,29.47,NNW,327,0.0,9.0,60,0.00,,,0.00,Wunderground v.1.15,2013-03-21 09:45:00,
2013-03-21 03:50:00,34.0,22.0,29.47,NNW,346,0.0,9.0,61,0.00,,,0.00,Wunderground v.1.15,2013-03-21 09:50:00,
2013-03-21 03:55:00,33.9,21.5,29.47,NW,306,0.0,9.0,60,0.00,,,0.00,Wunderground v.1.15,2013-03-21 09:55:00,
2013-03-21 04:05:00,34.0,21.6,29.46,WNW,300,0.0,9.0,60,0.00,,,0.00,Wunderground v.1.15,2013-03-21 10:05:00,
2013-03-21 04:10:00,34.0,21.6,29.45,SW,233,0.0,9.0,60,0.00,,,0.00,Wunderground v.1.15,2013-03-21 10:10:00,
2013-03-21 04:15:00,33.8,21.4,29.45,SW,233,0.0,9.0,60,0.00,,,0.00,Wunderground v.1.15,2013-03-21 10:15:00,
2013-03-21 04:20:00,33.7,21.3,29.44,NNE,22,0.0,9.0,60,0.00,,,0.00,Wunderground v.1.15,2013-03-21 10:20:00,
2013-03-21 04:25:00,33.5,21.9,29.44,NW,314,0.0,9.0,62,0.00,,,0.00,Wunderground v.1.15,2013-03-21 10:25:00,
2013-03-21 04:30:00,33.4,21.8,29.44,NW,314,0.0,9.0,62,0.00,,,0.00,Wunderground v.1.15,2013-03-21 10:30:00,
2013-03-21 04:35:00,33.1,21.5,29.43,North,350,0.0,9.0,62,0.00,,,0.00,Wunderground v.1.15,2013-03-21 10:35:00,
2013-03-21 04:40:00,33.1,21.9,29.43,WNW,298,0.0,9.0,63,0.00,,,0.00,Wunderground v.1.15,2013-03-21 10:40:00,
2013-03-21 04:45:00,33.4,21.8,29.43,NNE,14,1.0,9.0,62,0.00,,,0.00,Wunderground v.1.15,2013-03-21 10:45:00,
2013-03-21 04:50:00,33.6,22.0,29.42,North,351,0.0,9.0,62,0.00,,,0.00,Wunderground v.1.15,2013-03-21 10:50:00,
2013-03-21 04:55:00,33.8,21.8,29.42,West,261,0.0,9.0,61,0.00,,,0.00,Wunderground v.1.15,2013-03-21 10:55:00,
2013-03-21 05:00:00,33.9,21.9,29.42,South,174,0.0,9.0,61,0.00,,,0.00,Wunderground v.1.15,2013-03-21 11:00:00,
2013-03-21 05:05:00,33.9,21.9,29.41,North,360,0.0,9.0,61,0.00,,,0.00,Wunderground v.1.15,2013-03-21 11:05:00,
2013-03-21 05:10:00,33.8,21.8,29.41,West,280,0.0,9.0,61,0.00,,,0.00,Wunderground v.1.15,2013-03-21 11:10:00,
2013-03-21 05:15:00,33.9,21.9,29.40,NNW,331,0.0,9.0,61,0.00,,,0.00,Wunderground v.1.15,2013-03-21 11:15:00,
2013-03-21 05:20:00,34.0,22.0,29.40,NNW,332,0.0,9.0,61,0.00,,,0.00,Wunderground v.1.15,2013-03-21 11:20:00,
2013-03-21 05:30:00,34.5,22.4,29.39,ENE,60,1.0,1.0,61,0.00,,,0.00,Wunderground v.1.15,2013-03-21 11:30:00,
2013-03-21 05:40:00,35.3,22.8,29.39,NNW,331,1.0,1.0,60,0.00,,,0.00,Wunderground v.1.15,2013-03-21 11:40:00,
2013-03-21 05:45:00,35.6,22.7,29.39,North,355,1.0,9.0,59,0.00,,,0.00,Wunderground v.1.15,2013-03-21 11:45:00,
2013-03-21 05:50:00,35.7,22.8,29.39,NE,35,0.0,9.0,59,0.00,,,0.00,Wunderground v.1.15,2013-03-21 11:50:00,
2013-03-21 06:00:00,36.2,23.2,29.38,NNW,334,1.0,1.0,59,0.00,,,0.00,Wunderground v.1.15,2013-03-21 12:00:00,
2013-03-21 06:05:00,36.2,23.2,29.39,WSW,238,1.0,9.0,59,0.00,,,0.00,Wunderground v.1.15,2013-03-21 12:05:00,
2013-03-21 06:10:00,36.0,23.0,29.38,West,265,0.0,9.0,59,0.00,,,0.00,Wunderground v.1.15,2013-03-21 12:10:00,
2013-03-21 06:15:00,35.6,23.1,29.38,WSW,238,1.0,9.0,60,0.00,,,0.00,Wunderground v.1.15,2013-03-21 12:15:00,
2013-03-21 06:20:00,35.3,23.6,29.39,WSW,240,1.0,1.0,62,0.00,,,0.00,Wunderground v.1.15,2013-03-21 12:20:00,
2013-03-21 06:25:00,35.1,23.4,29.38,NNE,26,0.0,2.0,62,0.00,,,0.00,Wunderground v.1.15,2013-03-21 12:25:00,
2013-03-21 06:35:00,34.4,23.5,29.37,North,5,0.0,9.0,64,0.00,,,0.00,Wunderground v.1.15,2013-03-21 12:35:00,
2013-03-21 06:40:00,34.1,23.6,29.37,North,5,0.0,9.0,65,0.00,,,0.00,Wunderground v.1.15,2013-03-21 12:40:00,
2013-03-21 06:45:00,33.7,23.5,29.37,North,5,0.0,9.0,66,0.00,,,0.00,Wunderground v.1.15,2013-03-21 12:45:00,
2013-03-21 06:50:00,33.5,23.7,29.37,North,5,0.0,9.0,67,0.00,,,0.00,Wunderground v.1.15,2013-03-21 12:50:00,
2013-03-21 06:55:00,33.2,23.8,29.37,North,5,0.0,9.0,68,0.00,,,0.00,Wunderground v.1.15,2013-03-21 12:55:00,
2013-03-21 07:00:00,32.9,23.5,29.36,North,5,0.0,9.0,68,0.00,,,0.00,Wunderground v.1.15,2013-03-21 13:00:00,
2013-03-21 07:05:00,32.5,23.8,29.36,North,5,0.0,9.0,70,0.00,,,0.00,Wunderground v.1.15,2013-03-21 13:05:00,
2013-03-21 07:10:00,32.4,24.4,29.36,North,5,0.0,9.0,72,0.00,,,0.00,Wunderground v.1.15,2013-03-21 13:10:00,
2013-03-21 07:15:00,32.8,24.4,29.36,North,5,0.0,9.0,71,0.00,,,0.00,Wunderground v.1.15,2013-03-21 13:15:00,
2013-03-21 07:20:00,33.3,24.9,29.36,North,5,0.0,9.0,71,0.00,,,0.00,Wunderground v.1.15,2013-03-21 13:20:00,
2013-03-21 07:25:00,33.7,25.0,29.35,North,5,0.0,9.0,70,0.00,,,0.00,Wunderground v.1.15,2013-03-21 13:25:00,
2013-03-21 07:35:00,33.6,24.9,29.35,North,5,0.0,9.0,70,0.00,,,0.00,Wunderground v.1.15,2013-03-21 13:35:00,
2013-03-21 07:40:00,33.7,25.0,29.34,NNW,336,0.0,9.0,70,0.00,,,0.00,Wunderground v.1.15,2013-03-21 13:40:00,
2013-03-21 07:45:00,33.9,25.1,29.34,NNW,336,0.0,9.0,70,0.00,,,0.00,Wunderground v.1.15,2013-03-21 13:45:00,
2013-03-21 07:50:00,34.2,25.1,29.34,North,355,0.0,9.0,69,0.00,,,0.00,Wunderground v.1.15,2013-03-21 13:50:00,
2013-03-21 07:55:00,34.7,25.6,29.33,NW,313,0.0,9.0,69,0.00,,,0.00,Wunderground v.1.15,2013-03-21 13:55:00,
2013-03-21 08:00:00,35.7,25.8,29.33,NNE,14,1.0,1.0,67,0.00,,,0.00,Wunderground v.1.15,2013-03-21 14:00:00,
2013-03-21 08:05:00,36.8,26.1,29.32,North,5,1.0,4.0,65,0.00,,,0.00,Wunderground v.1.15,2013-03-21 14:05:00,
2013-03-21 08:10:00,37.6,26.1,29.32,North,5,1.0,1.0,63,0.00,,,0.00,Wunderground v.1.15,2013-03-21 14:10:00,
2013-03-21 08:20:00,38.3,25.6,29.32,SSW,209,1.0,9.0,60,0.00,,,0.00,Wunderground v.1.15,2013-03-21 14:20:00,
2013-03-21 08:30:00,39.2,26.5,29.32,East,96,2.0,2.0,60,0.00,,,0.00,Wunderground v.1.15,2013-03-21 14:30:00,
2013-03-21 08:35:00,39.7,26.5,29.32,NNW,327,2.0,4.0,59,0.00,,,0.00,Wunderground v.1.15,2013-03-21 14:35:00,
2013-03-21 08:40:00,39.3,26.2,29.32,NNE,21,2.0,9.0,59,0.00,,,0.00,Wunderground v.1.15,2013-03-21 14:40:00,
2013-03-21 08:45:00,38.7,25.6,29.33,WSW,250,1.0,9.0,59,0.00,,,0.00,Wunderground v.1.15,2013-03-21 14:45:00,
2013-03-21 08:50:00,38.4,25.7,29.33,South,180,1.0,1.0,60,0.00,,,0.00,Wunderground v.1.15,2013-03-21 14:50:00,
2013-03-21 09:00:00,37.4,27.1,29.33,ENE,77,1.0,1.0,66,0.00,,,0.00,Wunderground v.1.15,2013-03-21 15:00:00,
2013-03-21 09:05:00,36.7,27.1,29.33,NNW,327,1.0,9.0,68,0.00,,,0.00,Wunderground v.1.15,2013-03-21 15:05:00,
2013-03-21 09:10:00,36.1,27.3,29.34,NW,326,1.0,9.0,70,0.00,,,0.00,Wunderground v.1.15,2013-03-21 15:10:00,
2013-03-21 09:15:00,35.4,27.6,29.33,NNW,328,1.0,9.0,73,0.00,,,0.00,Wunderground v.1.15,2013-03-21 15:15:00,
2013-03-21 09:20:00,35.1,28.0,29.33,SSE,165,1.0,1.0,75,0.00,,,0.00,Wunderground v.1.15,2013-03-21 15:20:00,
2013-03-21 09:25:00,34.9,28.4,29.33,SSE,147,1.0,9.0,77,0.00,,,0.00,Wunderground v.1.15,2013-03-21 15:25:00,
2013-03-21 09:35:00,35.2,29.3,29.32,NW,315,1.0,9.0,79,0.00,,,0.00,Wunderground v.1.15,2013-03-21 15:35:00,
2013-03-21 09:40:00,36.1,29.6,29.31,South,175,0.0,9.0,77,0.00,,,0.00,Wunderground v.1.15,2013-03-21 15:40:00,
2013-03-21 09:45:00,36.9,29.4,29.30,WSW,248,1.0,9.0,74,0.00,,,0.00,Wunderground v.1.15,2013-03-21 15:45:00,
2013-03-21 09:50:00,37.6,29.0,29.30,NNE,13,1.0,9.0,71,0.00,,,0.00,Wunderground v.1.15,2013-03-21 15:50:00,
2013-03-21 09:55:00,38.6,28.6,29.30,NNW,343,1.0,9.0,67,0.00,,,0.00,Wunderground v.1.15,2013-03-21 15:55:00,
2013-03-21 10:00:00,39.5,27.5,29.29,NNW,336,2.0,9.0,62,0.00,,,0.00,Wunderground v.1.15,2013-03-21 16:00:00,
2013-03-21 10:05:00,40.2,27.8,29.28,NNE,16,2.0,9.0,61,0.00,,,0.00,Wunderground v.1.15,2013-03-21 16:05:00,
2013-03-21 10:10:00,40.8,26.7,29.28,NNE,14,2.0,2.0,57,0.00,,,0.00,Wunderground v.1.15,2013-03-21 16:10:00,
2013-03-21 10:15:00,41.3,26.8,29.28,WSW,255,2.0,9.0,56,0.00,,,0.00,Wunderground v.1.15,2013-03-21 16:15:00,
2013-03-21 10:25:00,42.0,26.5,29.28,SW,217,2.0,9.0,54,0.00,,,0.00,Wunderground v.1.15,2013-03-21 16:25:00,
2013-03-21 10:35:00,42.8,25.4,29.27,NW,311,2.0,9.0,50,0.00,,,0.00,Wunderground v.1.15,2013-03-21 16:35:00,
2013-03-21 10:40:00,43.3,23.4,29.27,North,360,3.0,9.0,45,0.00,,,0.00,Wunderground v.1.15,2013-03-21 16:40:00,
2013-03-21 10:45:00,43.7,22.6,29.27,NNW,342,3.0,9.0,43,0.00,,,0.00,Wunderground v.1.15,2013-03-21 16:45:00,
2013-03-21 10:50:00,43.7,22.1,29.27,West,279,2.0,9.0,42,0.00,,,0.00,Wunderground v.1.15,2013-03-21 16:50:00,
2013-03-21 11:00:00,42.9,21.4,29.27,North,5,3.0,9.0,42,0.00,,,0.00,Wunderground v.1.15,2013-03-21 17:00:00,
2013-03-21 11:10:00,41.7,22.9,29.27,NNE,14,5.0,9.0,47,0.00,,,0.00,Wunderground v.1.15,2013-03-21 17:10:00,
2013-03-21 11:15:00,40.5,22.8,29.28,North,351,4.0,9.0,49,0.00,,,0.00,Wunderground v.1.15,2013-03-21 17:15:00,
2013-03-21 11:20:00,39.7,22.6,29.27,SSW,200,3.0,3.0,50,0.00,,,0.00,Wunderground v.1.15,2013-03-21 17:20:00,
2013-03-21 11:25:00,39.8,23.6,29.27,SW,232,3.0,9.0,52,0.00,,,0.00,Wunderground v.1.15,2013-03-21 17:25:00,
2013-03-21 11:30:00,39.6,25.6,29.28,WSW,251,2.0,2.0,57,0.00,,,0.00,Wunderground v.1.15,2013-03-21 17:30:00,
2013-03-21 11:35:00,38.9,25.8,29.28,West,276,3.0,4.0,59,0.00,,,0.00,Wunderground v.1.15,2013-03-21 17:35:00,
2013-03-21 11:40:00,38.5,26.2,29.27,NNW,331,3.0,3.0,61,0.00,,,0.00,Wunderground v.1.15,2013-03-21 17:40:00,
2013-03-21 11:45:00,38.2,23.4,29.27,ESE,109,3.0,9.0,55,0.00,,,0.00,Wunderground v.1.15,2013-03-21 17:45:00,
2013-03-21 11:55:00,37.3,26.2,29.26,North,350,2.0,3.0,64,0.00,,,0.00,Wunderground v.1.15,2013-03-21 17:55:00,
2013-03-21 12:00:00,37.6,27.3,29.26,WNW,294,2.0,2.0,66,0.00,,,0.00,Wunderground v.1.15,2013-03-21 18:00:00,
2013-03-21 12:05:00,38.7,27.6,29.25,WNW,302,1.0,9.0,64,0.00,,,0.00,Wunderground v.1.15,2013-03-21 18:05:00,
2013-03-21 12:10:00,39.9,25.9,29.25,NNW,344,2.0,2.0,57,0.00,,,0.00,Wunderground v.1.15,2013-03-21 18:10:00,
2013-03-21 12:15:00,41.4,25.5,29.25,SW,221,2.0,9.0,53,0.00,,,0.00,Wunderground v.1.15,2013-03-21 18:15:00,
2013-03-21 12:20:00,42.6,25.2,29.24,NNW,348,1.0,1.0,50,0.00,,,0.00,Wunderground v.1.15,2013-03-21 18:20:00,
2013-03-21 12:25:00,43.3,25.4,29.23,ENE,67,1.0,9.0,49,0.00,,,0.00,Wunderground v.1.15,2013-03-21 18:25:00,
2013-03-21 12:30:00,43.6,24.7,29.23,NW,310,2.0,9.0,47,0.00,,,0.00,Wunderground v.1.15,2013-03-21 18:30:00,
2013-03-21 12:40:00,43.2,23.3,29.23,SSW,205,3.0,9.0,45,0.00,,,0.00,Wunderground v.1.15,2013-03-21 18:40:00,
2013-03-21 12:50:00,43.9,22.8,29.23,NW,323,2.0,10.0,43,0.00,,,0.00,Wunderground v.1.15,2013-03-21 18:50:00,
2013-03-21 12:55:00,44.5,22.8,29.23,NW,324,3.0,10.0,42,0.00,,,0.00,Wunderground v.1.15,2013-03-21 18:55:00,
2013-03-21 13:00:00,44.4,21.0,29.23,SSW,207,3.0,9.0,39,0.00,,,0.00,Wunderground v.1.15,2013-03-21 19:00:00,
2013-03-21 13:05:00,43.7,19.7,29.23,West,278,3.0,9.0,38,0.00,,,0.00,Wunderground v.1.15,2013-03-21 19:05:00,
2013-03-21 13:10:00,43.1,17.9,29.23,North,355,3.0,9.0,36,0.00,,,0.00,Wunderground v.1.15,2013-03-21 19:10:00,
2013-03-21 13:15:00,42.6,16.8,29.25,South,181,4.0,18.0,35,0.00,,,0.00,Wunderground v.1.15,2013-03-21 19:15:00,
2013-03-21 13:20:00,41.7,17.9,29.27,NNW,333,5.0,5.0,38,0.00,,,0.00,Wunderground v.1.15,2013-03-21 19:20:00,
2013-03-21 13:25:00,40.0,19.3,29.26,North,349,4.0,9.0,43,0.00,,,0.00,Wunderground v.1.15,2013-03-21 19:25:00,
2013-03-21 13:30:00,38.3,20.3,29.25,North,355,4.0,4.0,48,0.00,,,0.00,Wunderground v.1.15,2013-03-21 19:30:00,
2013-03-21 13:35:00,37.8,20.3,29.27,North,355,4.0,10.0,49,0.00,,,0.00,Wunderground v.1.15,2013-03-21 19:35:00,
2013-03-21 13:40:00,37.0,23.6,29.28,North,355,4.0,4.0,58,0.00,,,0.00,Wunderground v.1.15,2013-03-21 19:40:00,
2013-03-21 13:50:00,35.3,25.8,29.28,North,350,3.0,3.0,68,0.00,,,0.00,Wunderground v.1.15,2013-03-21 19:50:00,
2013-03-21 14:00:00,34.9,26.4,29.28,WNW,302,2.0,9.0,71,0.00,,,0.00,Wunderground v.1.15,2013-03-21 20:00:00,
2013-03-21 14:05:00,34.8,26.4,29.28,NNW,346,2.0,9.0,71,0.00,,,0.00,Wunderground v.1.15,2013-03-21 20:05:00,
2013-03-21 14:10:00,34.6,27.2,29.28,NNE,13,3.0,9.0,74,0.00,,,0.00,Wunderground v.1.15,2013-03-21 20:10:00,
2013-03-21 14:15:00,34.4,28.2,29.28,NNW,347,2.0,9.0,78,0.00,,,0.00,Wunderground v.1.15,2013-03-21 20:15:00,
2013-03-21 14:20:00,34.8,29.3,29.28,West,277,1.0,9.0,80,0.00,,,0.00,Wunderground v.1.15,2013-03-21 20:20:00,
2013-03-21 14:25:00,35.2,28.7,29.27,NNW,342,2.0,9.0,77,0.00,,,0.00,Wunderground v.1.15,2013-03-21 20:25:00,
2013-03-21 14:35:00,36.5,28.0,29.26,NW,317,2.0,10.0,71,0.00,,,0.00,Wunderground v.1.15,2013-03-21 20:35:00,
2013-03-21 14:40:00,37.5,27.5,29.26,WNW,288,2.0,9.0,67,0.00,,,0.00,Wunderground v.1.15,2013-03-21 20:40:00,
2013-03-21 14:45:00,38.2,26.7,29.26,NW,323,3.0,9.0,63,0.00,,,0.00,Wunderground v.1.15,2013-03-21 20:45:00,
2013-03-21 14:50:00,38.3,26.8,29.25,SW,223,3.0,3.0,63,0.00,,,0.00,Wunderground v.1.15,2013-03-21 20:50:00,
2013-03-21 14:55:00,38.8,26.9,29.25,West,259,3.0,9.0,62,0.00,,,0.00,Wunderground v.1.15,2013-03-21 20:55:00,
2013-03-21 15:00:00,39.1,26.8,29.25,WSW,245,2.0,2.0,61,0.00,,,0.00,Wunderground v.1.15,2013-03-21 21:00:00,
2013-03-21 15:05:00,39.7,26.9,29.25,North,11,2.0,9.0,60,0.00,,,0.00,Wunderground v.1.15,2013-03-21 21:05:00,
2013-03-21 15:15:00,41.0,25.2,29.25,North,5,3.0,3.0,53,0.00,,,0.00,Wunderground v.1.15,2013-03-21 21:15:00,
2013-03-21 15:20:00,41.3,24.0,29.25,SE,125,4.0,4.0,50,0.00,,,0.00,Wunderground v.1.15,2013-03-21 21:20:00,
2013-03-21 15:25:00,41.5,24.2,29.25,NW,322,4.0,9.0,50,0.00,,,0.00,Wunderground v.1.15,2013-03-21 21:25:00,
2013-03-21 15:30:00,41.4,23.6,29.26,North,355,3.0,9.0,49,0.00,,,0.00,Wunderground v.1.15,2013-03-21 21:30:00,
2013-03-21 15:35:00,40.7,23.0,29.26,North,5,4.0,9.0,49,0.00,,,0.00,Wunderground v.1.15,2013-03-21 21:35:00,
2013-03-21 15:40:00,40.5,21.8,29.25,North,355,4.0,4.0,47,0.00,,,0.00,Wunderground v.1.15,2013-03-21 21:40:00,
2013-03-21 15:45:00,40.7,20.5,29.25,WSW,255,4.0,9.0,44,0.00,,,0.00,Wunderground v.1.15,2013-03-21 21:45:00,
2013-03-21 15:55:00,40.4,19.6,29.25,North,350,5.0,9.0,43,0.00,,,0.00,Wunderground v.1.15,2013-03-21 21:55:00,
2013-03-21 16:00:00,40.7,21.0,29.26,SW,214,4.0,4.0,45,0.00,,,0.00,Wunderground v.1.15,2013-03-21 22:00:00,
2013-03-21 16:10:00,40.6,21.4,29.26,West,265,3.0,3.0,46,0.00,,,0.00,Wunderground v.1.15,2013-03-21 22:10:00,
2013-03-21 16:15:00,40.0,20.9,29.27,NNE,23,2.0,4.0,46,0.00,,,0.00,Wunderground v.1.15,2013-03-21 22:15:00,
2013-03-21 16:20:00,40.2,21.0,29.27,North,350,2.0,9.0,46,0.00,,,0.00,Wunderground v.1.15,2013-03-21 22:20:00,
2013-03-21 16:30:00,40.3,21.6,29.28,WNW,286,4.0,4.0,47,0.00,,,0.00,Wunderground v.1.15,2013-03-21 22:30:00,
2013-03-21 16:35:00,40.2,21.6,29.28,WSW,258,3.0,9.0,47,0.00,,,0.00,Wunderground v.1.15,2013-03-21 22:35:00,
2013-03-21 16:40:00,40.4,19.6,29.28,North,5,2.0,9.0,43,0.00,,,0.00,Wunderground v.1.15,2013-03-21 22:40:00,
2013-03-21 16:45:00,39.7,17.3,29.28,NNW,344,3.0,9.0,40,0.00,,,0.00,Wunderground v.1.15,2013-03-21 22:45:00,
2013-03-21 16:50:00,39.1,15.6,29.29,NE,48,4.0,9.0,38,0.00,,,0.00,Wunderground v.1.15,2013-03-21 22:50:00,
2013-03-21 16:55:00,38.8,13.4,29.28,North,5,4.0,9.0,35,0.00,,,0.00,Wunderground v.1.15,2013-03-21 22:55:00,
2013-03-21 17:00:00,38.9,13.5,29.29,ESE,118,4.0,4.0,35,0.00,,,0.00,Wunderground v.1.15,2013-03-21 23:00:00,
2013-03-21 17:10:00,39.5,12.7,29.29,NNW,337,2.0,9.0,33,0.00,,,0.00,Wunderground v.1.15,2013-03-21 23:10:00,
2013-03-21 17:15:00,39.6,12.8,29.29,West,267,3.0,9.0,33,0.00,,,0.00,Wunderground v.1.15,2013-03-21 23:15:00,
2013-03-21 17:20:00,39.3,11.9,29.30,North,9,3.0,9.0,32,0.00,,,0.00,Wunderground v.1.15,2013-03-21 23:20:00,
2013-03-21 17:25:00,38.4,11.1,29.30,West,273,3.0,9.0,32,0.00,,,0.00,Wunderground v.1.15,2013-03-21 23:25:00,
2013-03-21 17:30:00,37.8,11.2,29.30,North,355,4.0,4.0,33,0.00,,,0.00,Wunderground v.1.15,2013-03-21 23:30:00,
2013-03-21 17:35:00,37.5,10.3,29.31,NNW,348,3.0,9.0,32,0.00,,,0.00,Wunderground v.1.15,2013-03-21 23:35:00,
2013-03-21 17:40:00,37.1,10.6,29.31,NNW,331,3.0,3.0,33,0.00,,,0.00,Wunderground v.1.15,2013-03-21 23:40:00,
2013-03-21 17:45:00,36.9,10.4,29.31,West,261,3.0,9.0,33,0.00,,,0.00,Wunderground v.1.15,2013-03-21 23:45:00,
2013-03-21 17:50:00,36.9,10.4,29.32,North,355,2.0,9.0,33,0.00,,,0.00,Wunderground v.1.15,2013-03-21 23:50:00,
2013-03-21 17:55:00,36.5,10.1,29.32,North,355,3.0,9.0,33,0.00,,,0.00,Wunderground v.1.15,2013-03-21 23:55:00,
2013-03-21 18:00:00,36.2,10.5,29.33,NNW,338,3.0,9.0,34,0.00,,,0.00,Wunderground v.1.15,2013-03-22 00:00:00,
2013-03-21 18:05:00,35.7,10.0,29.33,NW,306,3.0,9.0,34,0.00,,,0.00,Wunderground v.1.15,2013-03-22 00:05:00,
2013-03-21 18:10:00,35.4,10.4,29.33,NE,45,4.0,4.0,35,0.00,,,0.00,Wunderground v.1.15,2013-03-22 00:10:00,
2013-03-21 18:15:00,35.1,10.2,29.33,NNW,342,4.0,6.0,35,0.00,,,0.00,Wunderground v.1.15,2013-03-22 00:15:00,
2013-03-21 18:20:00,34.7,9.8,29.34,North,360,5.0,5.0,35,0.00,,,0.00,Wunderground v.1.15,2013-03-22 00:20:00,
2013-03-21 18:25:00,34.6,10.3,29.34,North,11,5.0,9.0,36,0.00,,,0.00,Wunderground v.1.15,2013-03-22 00:25:00,
2013-03-21 18:30:00,34.5,10.2,29.34,NNW,340,4.0,4.0,36,0.00,,,0.00,Wunderground v.1.15,2013-03-22 00:30:00,
2013-03-21 18:35:00,34.4,10.2,29.34,NW,319,4.0,9.0,36,0.00,,,0.00,Wunderground v.1.15,2013-03-22 00:35:00,
2013-03-21 18:40:00,34.2,10.6,29.34,NW,312,3.0,3.0,37,0.00,,,0.00,Wunderground v.1.15,2013-03-22 00:40:00,
2013-03-21 18:45:00,33.9,10.3,29.34,NNW,338,3.0,5.0,37,0.00,,,0.00,Wunderground v.1.15,2013-03-22 00:45:00,
2013-03-21 18:50:00,33.8,10.2,29.35,NW,311,4.0,9.0,37,0.00,,,0.00,Wunderground v.1.15,2013-03-22 00:50:00,
2013-03-21 18:55:00,33.7,10.7,29.35,WNW,303,4.0,9.0,38,0.00,,,0.00,Wunderground v.1.15,2013-03-22 00:55:00,
2013-03-21 19:00:00,33.6,11.2,29.35,NW,314,4.0,4.0,39,0.00,,,0.00,Wunderground v.1.15,2013-03-22 01:00:00,
2013-03-21 19:05:00,33.5,11.2,29.36,South,180,3.0,9.0,39,0.00,,,0.00,Wunderground v.1.15,2013-03-22 01:05:00,
2013-03-21 19:15:00,33.2,11.5,29.37,SW,236,3.0,9.0,40,0.00,,,0.00,Wunderground v.1.15,2013-03-22 01:15:00,
2013-03-21 19:20:00,33.1,10.8,29.37,NNE,14,4.0,9.0,39,0.00,,,0.00,Wunderground v.1.15,2013-03-22 01:20:00,
2013-03-21 19:25:00,33.0,10.7,29.37,West,276,4.0,9.0,39,0.00,,,0.00,Wunderground v.1.15,2013-03-22 01:25:00,
2013-03-21 19:30:00,32.9,10.6,29.37,NNW,336,4.0,4.0,39,0.00,,,0.00,Wunderground v.1.15,2013-03-22 01:30:00,
2013-03-21 19:35:00,32.9,10.0,29.37,WSW,256,4.0,9.0,38,0.00,,,0.00,Wunderground v.1.15,2013-03-22 01:35:00,
2013-03-21 19:40:00,32.8,9.9,29.38,NNW,327,4.0,9.0,38,0.00,,,0.00,Wunderground v.1.15,2013-03-22 01:40:00,
2013-03-21 19:45:00,32.7,10.4,29.38,NW,314,4.0,9.0,39,0.00,,,0.00,Wunderground v.1.15,2013-03-22 01:45:00,
2013-03-21 19:50:00,32.6,9.8,29.38,NW,312,3.0,3.0,38,0.00,,,0.00,Wunderground v.1.15,2013-03-22 01:50:00,
2013-03-21 19:55:00,32.6,8.6,29.39,NW,316,2.0,9.0,36,0.00,,,0.00,Wunderground v.1.15,2013-03-22 01:55:00,
2013-03-21 20:00:00,32.6,8.6,29.39,NW,325,3.0,9.0,36,0.00,,,0.00,Wunderground v.1.15,2013-03-22 02:00:00,
2013-03-21 20:05:00,32.4,9.0,29.39,West,271,2.0,9.0,37,0.00,,,0.00,Wunderground v.1.15,2013-03-22 02:05:00,
2013-03-21 20:10:00,32.3,8.9,29.40,NW,308,2.0,9.0,37,0.00,,,0.00,Wunderground v.1.15,2013-03-22 02:10:00,
2013-03-21 20:15:00,32.2,8.8,29.40,North,355,2.0,9.0,37,0.00,,,0.00,Wunderground v.1.15,2013-03-22 02:15:00,
2013-03-21 20:20:00,32.1,8.7,29.40,NNW,345,1.0,1.0,37,0.00,,,0.00,Wunderground v.1.15,2013-03-22 02:20:00,
2013-03-21 20:25:00,31.9,8.5,29.40,NNW,342,1.0,9.0,37,0.00,,,0.00,Wunderground v.1.15,2013-03-22 02:25:00,
2013-03-21 20:30:00,31.9,8.5,29.40,NNW,336,1.0,9.0,37,0.00,,,0.00,Wunderground v.1.15,2013-03-22 02:30:00,
2013-03-21 20:35:00,32.0,8.6,29.41,NNW,333,2.0,9.0,37,0.00,,,0.00,Wunderground v.1.15,2013-03-22 02:35:00,
2013-03-21 20:40:00,31.9,8.5,29.41,NNW,342,2.0,9.0,37,0.00,,,0.00,Wunderground v.1.15,2013-03-22 02:40:00,
2013-03-21 20:45:00,31.9,8.5,29.41,NNW,333,2.0,9.0,37,0.00,,,0.00,Wunderground v.1.15,2013-03-22 02:45:00,
2013-03-21 20:50:00,31.9,8.5,29.41,NE,35,3.0,9.0,37,0.00,,,0.00,Wunderground v.1.15,2013-03-22 02:50:00,
2013-03-21 20:55:00,31.8,8.4,29.42,WNW,300,3.0,9.0,37,0.00,,,0.00,Wunderground v.1.15,2013-03-22 02:55:00,
2013-03-21 21:00:00,31.7,8.4,29.42,NNW,347,2.0,2.0,37,0.00,,,0.00,Wunderground v.1.15,2013-03-22 03:00:00,
2013-03-21 21:05:00,31.5,8.2,29.43,WNW,284,2.0,9.0,37,0.00,,,0.00,Wunderground v.1.15,2013-03-22 03:05:00,
2013-03-21 21:10:00,31.3,8.0,29.43,North,355,1.0,1.0,37,0.00,,,0.00,Wunderground v.1.15,2013-03-22 03:10:00,
2013-03-21 21:15:00,31.2,7.9,29.43,North,355,1.0,2.0,37,0.00,,,0.00,Wunderground v.1.15,2013-03-22 03:15:00,
2013-03-21 21:20:00,31.2,7.3,29.43,NNW,332,1.0,1.0,36,0.00,,,0.00,Wunderground v.1.15,2013-03-22 03:20:00,
2013-03-21 21:30:00,31.1,7.8,29.43,WNW,300,1.0,9.0,37,0.00,,,0.00,Wunderground v.1.15,2013-03-22 03:30:00,
2013-03-21 21:35:00,31.0,7.1,29.43,NW,310,1.0,9.0,36,0.00,,,0.00,Wunderground v.1.15,2013-03-22 03:35:00,
2013-03-21 21:40:00,31.1,7.2,29.43,NNW,339,2.0,2.0,36,0.00,,,0.00,Wunderground v.1.15,2013-03-22 03:40:00,
2013-03-21 21:50:00,31.2,6.7,29.43,WNW,290,2.0,2.0,35,0.00,,,0.00,Wunderground v.1.15,2013-03-22 03:50:00,
2013-03-21 21:55:00,31.1,7.2,29.44,NW,311,2.0,9.0,36,0.00,,,0.00,Wunderground v.1.15,2013-03-22 03:55:00,
2013-03-21 22:00:00,30.9,7.0,29.44,NW,319,0.0,9.0,36,0.00,,,0.00,Wunderground v.1.15,2013-03-22 04:00:00,
2013-03-21 22:10:00,30.5,7.3,29.45,NW,319,0.0,9.0,37,0.00,,,0.00,Wunderground v.1.15,2013-03-22 04:10:00,
2013-03-21 22:15:00,30.2,7.0,29.45,West,261,0.0,9.0,37,0.00,,,0.00,Wunderground v.1.15,2013-03-22 04:15:00,
2013-03-21 22:20:00,29.8,6.7,29.46,West,261,0.0,9.0,37,0.00,,,0.00,Wunderground v.1.15,2013-03-22 04:20:00,
2013-03-21 22:25:00,29.5,7.0,29.46,West,261,0.0,9.0,38,0.00,,,0.00,Wunderground v.1.15,2013-03-22 04:25:00,
2013-03-21 22:30:00,29.3,6.8,29.46,West,261,0.0,9.0,38,0.00,,,0.00,Wunderground v.1.15,2013-03-22 04:30:00,
2013-03-21 22:35:00,29.2,7.3,29.46,West,261,0.0,9.0,39,0.00,,,0.00,Wunderground v.1.15,2013-03-22 04:35:00,
2013-03-21 22:40:00,28.8,7.5,29.47,West,261,0.0,9.0,40,0.00,,,0.00,Wunderground v.1.15,2013-03-22 04:40:00,
2013-03-21 22:45:00,28.7,7.4,29.47,NW,326,0.0,9.0,40,0.00,,,0.00,Wunderground v.1.15,2013-03-22 04:45:00,
2013-03-21 22:50:00,28.6,7.3,29.47,NW,326,0.0,9.0,40,0.00,,,0.00,Wunderground v.1.15,2013-03-22 04:50:00,
2013-03-21 22:55:00,28.3,6.5,29.47,NW,326,0.0,9.0,39,0.00,,,0.00,Wunderground v.1.15,2013-03-22 04:55:00,
2013-03-21 23:00:00,28.1,9.0,29.46,NW,326,0.0,9.0,44,0.00,,,0.00,Wunderground v.1.15,2013-03-22 05:00:00,
2013-03-21 23:05:00,27.6,8.0,29.46,NW,326,0.0,9.0,43,0.00,,,0.00,Wunderground v.1.15,2013-03-22 05:05:00,
2013-03-21 23:10:00,27.2,7.1,29.47,NW,326,0.0,9.0,42,0.00,,,0.00,Wunderground v.1.15,2013-03-22 05:10:00,
2013-03-21 23:15:00,26.9,7.4,29.47,NW,326,0.0,9.0,43,0.00,,,0.00,Wunderground v.1.15,2013-03-22 05:15:00,
2013-03-21 23:20:00,26.5,7.5,29.47,NW,326,0.0,9.0,44,0.00,,,0.00,Wunderground v.1.15,2013-03-22 05:20:00,
2013-03-21 23:25:00,26.2,7.7,29.47,NW,326,0.0,9.0,45,0.00,,,0.00,Wunderground v.1.15,2013-03-22 05:25:00,
2013-03-21 23:30:00,25.8,8.3,29.47,NW,326,0.0,9.0,47,0.00,,,0.00,Wunderground v.1.15,2013-03-22 05:30:00,
2013-03-21 23:35:00,25.6,8.1,29.47,NW,326,0.0,9.0,47,0.00,,,0.00,Wunderground v.1.15,2013-03-22 05:35:00,
2013-03-21 23:40:00,25.4,7.5,29.47,NW,326,0.0,9.0,46,0.00,,,0.00,Wunderground v.1.15,2013-03-22 05:40:00,
2013-03-21 23:45:00,25.2,8.7,29.48,NW,326,0.0,9.0,49,0.00,,,0.00,Wunderground v.1.15,2013-03-22 05:45:00,
2013-03-21 23:50:00,24.8,9.2,29.48,NW,326,0.0,9.0,51,0.00,,,0.00,Wunderground v.1.15,2013-03-22 05:50:00,
2013-03-21 23:55:00,24.5,8.9,29.48,NW,326,0.0,9.0,51,0.00,,,0.00,Wunderground v.1.15,2013-03-22 05:55:00,